[[{"header":{"parameterUnit":"m.s-1","parameterCategory":1,"la1":30.2991,"la2":30.254,"lo1":-89.0895,"lo2":-89.0444,"dy":0.0017,"dx":0.0017,"nx":28,"ny":28,"refTime":"2025-03-27T03:00:00:Z","depth":0,"parameterNumber":2,"parameterNumberName":"U-component_of_WINDS"},"data":[0,0,0,0,0,0,0,0,0,0,0,0,0,0,0,0,0,0,0,0,0,0,0,0,0,0,0,0,0,0,0,0,0,0,0,0,0,0,0,0,0,0,0,0,0,0,0,0,0,0,0,0,0,0,0,0,0,0,-1.1453,-1.1452,0,-1.1436,-1.1436,-1.1436,-1.1393,-1.1392,-1.1391,-1.139,-1.1374,-1.1375,-1.1375,0,0,0,0,0,0,0,0,0,0,0,0,0,-1.1447,-1.1447,-1.1453,-1.1452,-1.1452,-1.1436,-1.1436,-1.1436,-1.1393,-1.1392,-1.1391,-1.139,-1.1374,-1.1375,-1.1375,0,0,0,0,0,0,0,0,0,0,0,0,0,-1.1442,-1.1447,-1.1453,-1.1429,-1.1427,-1.1436,-1.1436,-1.1436,-1.1393,-1.1392,-1.139,-1.1389,-1.1374,-1.1375,-1.1375,-1.1407,0,0,-1.1377,-1.1377,0,0,0,0,0,0,0,0,-1.1442,-1.1442,-1.1433,-1.1431,-1.1428,-1.1415,-1.1428,-1.1426,-1.1394,-1.1406,-1.139,-1.1388,-1.1389,-1.1388,-1.1388,-1.1406,-1.1405,-1.1377,-1.1378,-1.1378,-1.1378,0,0,0,0,0,0,0,-1.1443,-1.1443,-1.1446,-1.1433,-1.143,-1.1419,-1.1417,-1.1427,-1.1405,-1.1405,-1.1402,-1.14,-1.1387,-1.1388,-1.1388,-1.1405,-1.1377,-1.1378,-1.1378,-1.1378,-1.1447,-1.1448,0,0,0,0,0,0,-1.1446,-1.1443,-1.1447,-1.1446,-1.1432,-1.142,-1.1418,-1.1421,-1.1405,-1.1401,-1.1401,-1.1398,-1.1387,-1.1387,-1.1387,-1.1423,-1.1378,-1.1378,-1.1379,-1.1446,-1.1447,-1.1449,0,0,0,0,0,0,-1.1446,-1.1447,-1.1447,-1.1444,-1.1443,-1.1422,-1.1425,-1.1421,-1.1421,-1.1403,-1.1399,-1.1406,-1.1386,-1.1386,-1.1402,-1.1421,-1.1379,-1.1379,-1.1444,-1.1446,-1.1448,-1.1495,0,0,0,0,0,0,-1.1446,-1.1447,-1.1459,-1.1444,-1.1443,-1.1463,-1.1427,-1.1422,-1.1422,-1.1418,-1.1406,-1.1402,-1.1385,-1.1401,-1.1403,-1.1422,-1.138,-1.1442,-1.1445,-1.1447,-1.1491,-1.1498,-1.1504,0,0,0,0,0,-1.1446,-1.1474,-1.146,-1.1461,-1.1458,-1.1464,-1.1464,-1.1443,-1.1424,-1.1436,-1.1424,-1.1403,-1.1419,-1.1403,-1.1404,-1.1424,-1.1441,-1.1444,-1.1447,-1.1489,-1.1497,-1.1504,0,0,0,0,0,0,-1.1492,-1.1471,-1.1456,-1.1479,-1.1474,-1.1457,-1.1471,-1.1453,-1.1453,-1.1449,-1.1423,-1.1421,-1.144,-1.1433,-1.1416,-1.1453,-1.1426,-1.143,-1.1457,-1.1465,-1.1471,-1.1473,-1.138,0,0,0,0,0,-1.1505,-1.1512,-1.1493,-1.1515,-1.1513,-1.1493,-1.1495,-1.1479,-1.1473,-1.147,-1.1459,-1.1454,-1.1457,-1.1461,-1.1463,-1.149,-1.1486,-1.1503,-1.151,-1.1515,-1.1519,-1.1532,-1.1539,-1.1459,-1.1459,-1.1459,0,0,-1.1532,-1.1521,-1.1527,-1.1524,-1.1518,-1.1526,-1.1491,-1.1501,-1.1506,-1.1472,-1.1486,-1.1478,-1.147,-1.1491,-1.15,-1.1486,-1.154,-1.1519,-1.1524,-1.1524,-1.1536,-1.1543,-1.155,-1.1462,-1.1461,-1.1461,0,0,-1.1584,-1.1577,-1.1594,-1.1588,-1.1579,-1.1565,-1.1569,-1.1555,-1.1548,-1.1562,-1.1536,-1.1542,-1.1549,-1.1544,-1.1543,-1.1592,-1.1572,-1.1593,-1.1627,-1.164,-1.1646,-1.1651,-1.1669,-1.1675,-1.1597,-1.1597,-1.1597,0,-1.1619,-1.1629,-1.1606,-1.1617,-1.1616,-1.1584,-1.1601,-1.1597,-1.159,-1.159,-1.1574,-1.1582,-1.1574,-1.1594,-1.1605,-1.1605,-1.1609,-1.1595,-1.1647,-1.1652,-1.1657,-1.1673,-1.168,-1.1599,-1.1599,-1.1599,-1.1598,0,-1.1672,-1.168,-1.1695,-1.1688,-1.1688,-1.1703,-1.1681,-1.1685,-1.1668,-1.1656,-1.167,-1.166,-1.1659,-1.1662,-1.1647,-1.1679,-1.1671,-1.1651,-1.1624,-1.1667,-1.1682,-1.1689,-1.1603,-1.1602,-1.1601,-1.1601,0,0,-1.1755,-1.1733,-1.1739,-1.1735,-1.1722,-1.1728,-1.174,-1.1739,-1.1742,-1.1738,-1.1747,-1.1753,-1.1735,-1.1733,-1.1717,-1.1728,-1.1767,-1.1707,-1.1706,-1.1719,-1.1802,-1.1817,-1.1825,-1.1753,-1.1755,-1.1755,-1.1802,0,-1.1805,-1.1825,-1.1803,-1.1828,-1.1834,-1.1803,-1.1814,-1.1807,-1.1795,-1.1799,-1.1785,-1.179,-1.1765,-1.1764,-1.1773,-1.176,-1.1784,-1.1756,-1.1763,-1.1763,-1.1766,-1.1833,-1.1849,-1.1894,-1.1808,-1.1809,-1.181,0,-1.1867,-1.1864,-1.1889,-1.1873,-1.1875,-1.1885,-1.1882,-1.1885,-1.1876,-1.1867,-1.1864,-1.1844,-1.1855,-1.1827,-1.1841,-1.1824,-1.1824,-1.1818,-1.1819,-1.182,-1.179,-1.1836,-1.1908,-1.1915,-1.1819,-1.1818,-1.1818,0,-1.1925,-1.1928,-1.1943,-1.194,-1.1922,-1.193,-1.1923,-1.1912,-1.1912,-1.1909,-1.1909,-1.1907,-1.1907,-1.1906,-1.1885,-1.1867,-1.1902,-1.1873,-1.1895,-1.1895,-1.1905,-1.1904,-1.1979,-1.1904,-1.1904,-1.1904,-1.1904,0,-1.1984,-1.2,-1.1969,-1.1978,-1.1996,-1.197,-1.1988,-1.1977,-1.1968,-1.1975,-1.1947,-1.1954,-1.1926,-1.193,-1.1914,-1.1928,-1.1928,-1.192,-1.1916,-1.1923,-1.1924,-1.1924,-1.1921,-1.1906,-1.1905,-1.1905,-1.1905,0,-1.2053,-1.2032,-1.2046,-1.2027,-1.2023,-1.2037,-1.202,-1.2028,-1.2014,-1.2022,-1.2023,-1.2001,-1.2004,-1.1983,-1.1982,-1.1971,-1.1993,-1.1983,-1.1996,-1.1993,-1.2016,-1.2014,-1.2094,-1.2103,-1.2022,-1.2023,-1.2023,0,-1.2092,-1.2104,-1.2086,-1.2088,-1.2082,-1.2086,-1.2086,-1.206,-1.2061,-1.2051,-1.206,-1.206,-1.2059,-1.2065,-1.2049,-1.2048,-1.2038,-1.2066,-1.2038,-1.2044,-1.2039,-1.2038,-1.2039,-1.2072,-1.2073,-1.2074,-1.2075,0,-1.2164,-1.2152,-1.2153,-1.215,-1.2151,-1.2147,-1.2142,-1.2145,-1.2117,-1.212,-1.2122,-1.2121,-1.2119,-1.212,-1.2115,-1.2108,-1.2087,-1.2083,-1.2088,-1.2096,-1.2103,-1.21,-1.2013,-1.2082,-1.2081,-1.2081,-1.208,-1.208,-1.2219,-1.2228,-1.2216,-1.2218,-1.2211,-1.2206,-1.2212,-1.2198,-1.2199,-1.2196,-1.218,-1.2185,-1.2174,-1.2166,-1.216,-1.2163,-1.215,-1.2157,-1.2159,-1.2162,-1.2166,-1.2102,-1.2162,-1.2162,-1.2162,-1.2162,-1.2162,0,-1.229,-1.228,-1.2282,-1.2275,-1.2276,-1.2254,-1.2247,-1.2249,-1.2254,-1.2245,-1.2245,-1.2247,-1.2247,-1.223,-1.2228,-1.2233,-1.2224,-1.2234,-1.2234,-1.2232,-1.2178,-1.2174,-1.2242,-1.2242,-1.2242,-1.2242,-1.2242,-1.2242,-1.2327,-1.2341,-1.2328,-1.2337,-1.2328,-1.2332,-1.2329,-1.2325,-1.2318,-1.2321,-1.2321,-1.2309,-1.2297,-1.2294,-1.2293,-1.2288,-1.2288,-1.2302,-1.2294,-1.2244,-1.2236,-1.2229,-1.2225,-1.2302,-1.2302,-1.2347,-1.2348,-1.2348]},{"header":{"parameterUnit":"m.s-1","parameterCategory":1,"la1":30.2991,"la2":30.254,"lo1":-89.0895,"lo2":-89.0444,"dy":0.0017,"dx":0.0017,"nx":28,"ny":28,"refTime":"2025-03-27T03:00:00:Z","depth":0,"parameterNumber":3,"parameterNumberName":"V-component_of_WINDS"},"data":[0,0,0,0,0,0,0,0,0,0,0,0,0,0,0,0,0,0,0,0,0,0,0,0,0,0,0,0,0,0,0,0,0,0,0,0,0,0,0,0,0,0,0,0,0,0,0,0,0,0,0,0,0,0,0,0,0,0,-0.7214,-0.7214,0,-0.7248,-0.7249,-0.7249,-0.7254,-0.7254,-0.7254,-0.7253,-0.7286,-0.7287,-0.7288,0,0,0,0,0,0,0,0,0,0,0,0,0,-0.715,-0.7151,-0.7214,-0.7214,-0.7215,-0.7248,-0.7249,-0.7249,-0.7254,-0.7254,-0.7254,-0.7253,-0.7286,-0.7287,-0.7288,0,0,0,0,0,0,0,0,0,0,0,0,0,-0.718,-0.7152,-0.7214,-0.7222,-0.7223,-0.7248,-0.7249,-0.7249,-0.7254,-0.7254,-0.7254,-0.7253,-0.7285,-0.7287,-0.7289,-0.7308,0,0,-0.7294,-0.7295,0,0,0,0,0,0,0,0,-0.7179,-0.7183,-0.722,-0.7221,-0.7222,-0.7247,-0.7238,-0.7269,-0.7255,-0.7242,-0.7253,-0.7253,-0.7273,-0.7276,-0.7283,-0.731,-0.7311,-0.7294,-0.7295,-0.7296,-0.7296,0,0,0,0,0,0,0,-0.7177,-0.7181,-0.7227,-0.722,-0.7222,-0.7222,-0.7226,-0.7244,-0.726,-0.7243,-0.7244,-0.7248,-0.7274,-0.7282,-0.7284,-0.7311,-0.7294,-0.7296,-0.7297,-0.7297,-0.7355,-0.7355,0,0,0,0,0,0,-0.7174,-0.718,-0.7226,-0.7228,-0.7199,-0.7224,-0.7228,-0.7239,-0.726,-0.7262,-0.7248,-0.7248,-0.7279,-0.7282,-0.7285,-0.7309,-0.7296,-0.7297,-0.7298,-0.7354,-0.7355,-0.7355,0,0,0,0,0,0,-0.7172,-0.7178,-0.7225,-0.7204,-0.721,-0.7225,-0.7238,-0.724,-0.7248,-0.7263,-0.7266,-0.7254,-0.7279,-0.7283,-0.7302,-0.731,-0.7298,-0.73,-0.7354,-0.7354,-0.7355,-0.7357,0,0,0,0,0,0,-0.717,-0.7177,-0.7185,-0.7204,-0.7211,-0.7242,-0.7238,-0.7241,-0.7251,-0.7251,-0.7269,-0.7271,-0.7279,-0.73,-0.7304,-0.7312,-0.7301,-0.7353,-0.7354,-0.7355,-0.7356,-0.7357,-0.7359,0,0,0,0,0,-0.7168,-0.7184,-0.7186,-0.7191,-0.7222,-0.7243,-0.7247,-0.7255,-0.7252,-0.726,-0.7269,-0.7271,-0.7309,-0.7302,-0.7307,-0.7315,-0.7353,-0.7354,-0.7355,-0.7355,-0.7357,-0.7359,0,0,0,0,0,0,-0.7165,-0.7187,-0.7189,-0.7212,-0.7226,-0.7244,-0.7254,-0.7257,-0.7271,-0.7271,-0.728,-0.7284,-0.7303,-0.7311,-0.7303,-0.7335,-0.733,-0.7332,-0.7329,-0.7331,-0.7332,-0.733,-0.7303,0,0,0,0,0,-0.7167,-0.7183,-0.7201,-0.7219,-0.7226,-0.7239,-0.7248,-0.7254,-0.7268,-0.7274,-0.7285,-0.7298,-0.7312,-0.7322,-0.7336,-0.7357,-0.7361,-0.7365,-0.7367,-0.7368,-0.7369,-0.738,-0.7383,-0.7359,-0.7359,-0.7359,0,0,-0.7171,-0.7185,-0.7195,-0.7219,-0.723,-0.7246,-0.7244,-0.726,-0.7272,-0.7276,-0.7295,-0.7304,-0.7319,-0.7339,-0.7348,-0.7346,-0.7377,-0.7369,-0.737,-0.7371,-0.7382,-0.7384,-0.7386,-0.736,-0.736,-0.736,0,0,-0.7187,-0.72,-0.7216,-0.7228,-0.7245,-0.7253,-0.7257,-0.7275,-0.7281,-0.7301,-0.7304,-0.7317,-0.7342,-0.7353,-0.7362,-0.7381,-0.7382,-0.7385,-0.7392,-0.7402,-0.7404,-0.7406,-0.7412,-0.7414,-0.7386,-0.7386,-0.7386,0,-0.719,-0.7215,-0.7224,-0.7241,-0.7251,-0.7256,-0.7272,-0.7282,-0.7303,-0.731,-0.7307,-0.7339,-0.7349,-0.7372,-0.7376,-0.7383,-0.7387,-0.7383,-0.7403,-0.7405,-0.7407,-0.7413,-0.7415,-0.7387,-0.7387,-0.7387,-0.7387,0,-0.7217,-0.7234,-0.7245,-0.7266,-0.7277,-0.7293,-0.7304,-0.7314,-0.7319,-0.7327,-0.7346,-0.7359,-0.7376,-0.7381,-0.7385,-0.7404,-0.7402,-0.7401,-0.7397,-0.7409,-0.7415,-0.7417,-0.7387,-0.7387,-0.7387,-0.7387,0,0,-0.7233,-0.7258,-0.7262,-0.7271,-0.7291,-0.7303,-0.7319,-0.7336,-0.7345,-0.7358,-0.7371,-0.7392,-0.7392,-0.7401,-0.7406,-0.7416,-0.7429,-0.7413,-0.7414,-0.7416,-0.745,-0.7451,-0.7453,-0.743,-0.7431,-0.7431,-0.7449,0,-0.7251,-0.728,-0.7289,-0.7314,-0.7329,-0.7333,-0.7347,-0.736,-0.7368,-0.7381,-0.7389,-0.7404,-0.7402,-0.7407,-0.7417,-0.7426,-0.7436,-0.7424,-0.7442,-0.7442,-0.7438,-0.7456,-0.7457,-0.7473,-0.7451,-0.7451,-0.7452,0,-0.7276,-0.7291,-0.7317,-0.7334,-0.7341,-0.7353,-0.7369,-0.7382,-0.7396,-0.7401,-0.7411,-0.7416,-0.7431,-0.7426,-0.7447,-0.7439,-0.7446,-0.7451,-0.7452,-0.7454,-0.7448,-0.7459,-0.7479,-0.7481,-0.7456,-0.7455,-0.7455,0,-0.7284,-0.7311,-0.733,-0.7338,-0.7358,-0.7366,-0.7375,-0.7389,-0.7398,-0.7412,-0.7418,-0.7433,-0.7441,-0.7452,-0.746,-0.7455,-0.748,-0.7475,-0.7484,-0.7484,-0.7489,-0.7489,-0.751,-0.7494,-0.7494,-0.7494,-0.7494,0,-0.7303,-0.7319,-0.7334,-0.7346,-0.7363,-0.7372,-0.7389,-0.7398,-0.741,-0.7422,-0.7427,-0.7438,-0.7448,-0.746,-0.7466,-0.7483,-0.7486,-0.749,-0.7492,-0.749,-0.7489,-0.7495,-0.7494,-0.7495,-0.7494,-0.7494,-0.7494,0,-0.7316,-0.7326,-0.7348,-0.7365,-0.737,-0.7382,-0.7396,-0.7407,-0.7415,-0.7431,-0.7435,-0.7447,-0.7462,-0.7471,-0.7489,-0.7493,-0.7511,-0.7512,-0.7507,-0.7507,-0.7516,-0.7515,-0.7542,-0.7545,-0.7526,-0.7527,-0.7527,0,-0.7327,-0.734,-0.7359,-0.7368,-0.7377,-0.7392,-0.7401,-0.741,-0.742,-0.7437,-0.7446,-0.7461,-0.7474,-0.7497,-0.7507,-0.7521,-0.7522,-0.7531,-0.7524,-0.7522,-0.7522,-0.7521,-0.7522,-0.7532,-0.7532,-0.7532,-0.7532,0,-0.7347,-0.7351,-0.7366,-0.7382,-0.7394,-0.7407,-0.742,-0.7427,-0.7438,-0.7449,-0.7465,-0.7475,-0.7494,-0.7509,-0.7523,-0.7531,-0.7533,-0.7534,-0.7537,-0.7535,-0.7532,-0.7533,-0.751,-0.7533,-0.7533,-0.7533,-0.7533,-0.7533,-0.7359,-0.737,-0.7385,-0.7401,-0.7412,-0.7423,-0.7435,-0.7444,-0.7458,-0.7475,-0.7479,-0.7495,-0.7508,-0.7528,-0.7536,-0.7548,-0.7547,-0.7551,-0.7552,-0.7552,-0.7553,-0.753,-0.7551,-0.7551,-0.7551,-0.7551,-0.7551,0,-0.7378,-0.7388,-0.7403,-0.7421,-0.7433,-0.7435,-0.7449,-0.7459,-0.7474,-0.7486,-0.7498,-0.7516,-0.753,-0.7541,-0.7555,-0.7563,-0.7564,-0.7566,-0.7566,-0.7567,-0.7553,-0.7549,-0.7565,-0.7565,-0.7565,-0.7565,-0.7565,-0.7565,-0.739,-0.7409,-0.7415,-0.7439,-0.7448,-0.7465,-0.7473,-0.7483,-0.7493,-0.7513,-0.7525,-0.7532,-0.7543,-0.7558,-0.7571,-0.7574,-0.7579,-0.7581,-0.7584,-0.757,-0.7569,-0.7567,-0.7564,-0.7582,-0.7582,-0.7597,-0.7597,-0.7597]}]]